1504591200.0,40718,14.63,73624.8,-2.27,-3.75,-3.63,0,*5A
1504591201.25,40719,14.63,73624.3,-2.27,-3.63,-3.51,0,*5D
1504591202.45,40720,14.63,73622.8,-2.23,-3.31,-3.27,0,*55
1504591203.65,40721,14.63,73622.5,-2.27,-3.19,-3.07,0,*58
1504591204.85,40722,14.63,73624.3,-2.27,-3.27,-3.15,0,*55
1504591206.05,40723,14.63,73616.5,-2.23,-3.15,-3.07,0,*52
1504591207.25,40724,14.63,73614.0,-2.23,-3.39,-3.31,0,*5E
1504591208.47,40725,14.63,73622.3,-2.21,-3.35,-3.35,0,*55
1504591209.68,40726,14.63,73632.8,-2.23,-3.39,-3.27,0,*5B
1504591210.95,40727,14.63,73618.8,-2.21,-3.51,-3.47,0,*50
1504591212.17,40728,14.63,73614.8,-2.23,-3.43,-3.39,0,*57
1504591213.38,40729,14.63,73610.0,-2.17,-3.23,-3.19,0,*55
1504591214.57,40730,14.63,73612.0,-2.19,-3.15,-3.23,0,*5F
1504591215.79,40731,14.63,73622.5,-2.21,-3.15,-3.11,0,*54
1504591217.01,40732,14.63,73622.0,-2.17,-3.19,-3.07,0,*59
1504591218.19,40733,14.63,73620.5,-2.19,-3.23,-3.15,0,*5C
1504591219.41,40734,14.63,73624.3,-2.17,-3.23,-3.19,0,*59
1504591220.59,40735,14.63,73634.5,-2.19,-3.23,-3.11,0,*5E
1504591221.83,40736,14.63,73622.0,-2.19,-3.59,-3.47,0,*53
1504591223.08,40737,14.63,73622.8,-2.19,-3.63,-3.59,0,*54
1504591224.31,40738,14.63,73616.5,-2.19,-3.59,-3.47,0,*5D
1504591225.53,40739,14.63,73620.8,-2.17,-3.31,-3.23,0,*5E
1504591226.72,40740,14.63,73622.3,-2.19,-3.27,-3.23,0,*59
1504591227.91,40741,14.63,73620.0,-2.19,-3.27,-3.23,0,*58
1504591229.1,40742,14.63,73636.3,-2.19,-3.15,-3.11,0,*5B
1504591230.32,40743,14.63,73648.5,-2.17,-3.11,-3.11,0,*50
1504591231.54,40744,14.63,73620.3,-2.17,-3.11,-3.07,0,*50
1504591232.76,40745,14.63,73606.8,-2.17,-3.11,-3.07,0,*51
1504591233.95,40746,14.63,73602.5,-2.19,-3.15,-3.15,0,*5B
1504591235.16,40747,14.63,73618.8,-2.17,-3.19,-3.19,0,*54
1504591236.35,40748,14.63,73638.5,-2.19,-3.27,-3.23,0,*51
1504591237.57,40749,14.63,73638.8,-2.17,-3.31,-3.31,0,*5A
1504591238.83,40750,14.63,73630.3,-2.17,-3.59,-3.55,0,*5E
1504591240.09,40751,14.63,73640.3,-2.17,-3.67,-3.67,0,*53
1504591241.36,40752,14.63,73628.8,-2.17,-3.67,-3.59,0,*5D
1504591242.63,40753,14.63,73620.5,-2.17,-3.67,-3.59,0,*5C
1504591243.89,40754,14.63,73620.3,-2.17,-3.71,-3.67,0,*51
1504591245.15,40755,14.63,73610.5,-2.17,-3.67,-3.55,0,*56
1504591246.37,40756,14.63,73608.8,-2.17,-3.31,-3.11,0,*56
1504591247.59,40757,14.63,73584.8,-2.17,-3.11,-2.99,0,*54
1504591248.81,40758,14.63,73592.8,-2.17,-3.11,-2.99,0,*5B
1504591250.02,40759,14.63,73624.5,-2.15,-3.11,-2.99,0,*58
1504591251.21,40760,14.63,73614.8,-2.15,-3.31,-3.31,0,*53
1504591252.41,40761,14.63,73610.3,-2.15,-3.23,-3.35,0,*55
1504591253.62,40762,14.63,73608.3,-2.15,-3.11,-3.47,0,*52
1504591254.83,40763,14.63,73638.8,-2.15,-3.19,-4.37,0,*5B
1504591256.1,40764,14.63,73642.5,-2.13,-3.55,-5.11,0,*57
1504591257.3,40765,14.63,73642.5,-2.15,-4.21,-6.35,0,*51
1504591258.56,40766,14.63,73634.8,-2.13,-4.57,-7.43,0,*55
1504591259.75,40767,14.63,73628.5,-2.15,-4.65,-8.29,0,*50
1504591260.97,40768,14.63,73616.5,-2.15,-4.73,-8.97,0,*5D
1504591262.19,40769,14.63,73622.3,-2.15,-5.03,-9.97,0,*5B
1504591263.43,40770,14.63,73626.3,-2.15,-5.55,-10.63,0,*63
1504591264.67,40771,14.63,73616.5,-2.15,-6.27,-10.19,0,*69
1504591265.88,40772,14.63,73608.0,-2.17,-7.15,-8.71,0,*5F
1504591267.1,40773,14.63,73614.0,-2.17,-6.31,-5.39,0,*58
1504591268.35,40774,14.63,73604.8,-2.15,-4.89,-4.01,0,*56
1504591269.6,40775,14.63,73594.3,-2.13,-3.91,-3.67,0,*58
1504591270.86,40776,14.63,73590.8,-2.13,-3.63,-3.67,0,*56
1504591272.08,40777,14.63,73578.8,-2.15,-3.67,-3.79,0,*5A
1504591273.33,40778,14.63,73578.0,-2.13,-3.67,-4.29,0,*51
1504591274.53,40779,14.63,73594.5,-2.15,-4.37,-5.39,0,*54
1504591275.74,40780,14.63,73614.3,-2.13,-5.47,-7.49,0,*57
1504591276.99,40781,14.63,73610.8,-2.11,-6.59,-7.95,0,*59
1504591278.22,40782,14.63,73614.3,-2.11,-8.75,-10.93,0,*6A
1504591279.44,40783,14.63,73606.5,-2.09,-9.83,-11.41,0,*64
1504591280.69,40784,14.63,73604.8,-2.11,-10.09,-12.07,0,*51
1504591281.94,40785,14.63,73604.5,-2.11,-9.89,-12.53,0,*61
1504591283.13,40786,14.63,73612.5,-2.09,-10.49,-13.93,0,*52
1504591284.39,40787,14.63,73622.5,-2.11,-11.37,-14.65,0,*5C
1504591285.66,40788,14.63,73622.0,-2.11,-11.89,-15.25,0,*53
1504591286.94,40789,14.63,73622.0,-2.11,-12.15,-15.21,0,*50
1504591288.2,40790,14.63,73612.8,-2.11,-11.55,-14.65,0,*5E
1504591289.49,40791,14.63,73604.0,-2.13,-12.11,-15.39,0,*56
1504591290.74,40792,14.63,73616.8,-2.11,-12.03,-15.35,0,*58
1504591291.99,40793,14.63,73614.0,-2.07,-12.03,-15.29,0,*53
1504591293.28,40794,14.63,73618.0,-2.11,-11.93,-15.21,0,*51
1504591294.51,40795,14.63,73624.0,-2.11,-12.29,-15.67,0,*50
1504591295.74,40796,14.63,73612.3,-2.09,-12.35,-15.63,0,*53
1504591297.0,40797,14.63,73628.3,-2.11,-12.39,-15.81,0,*5B
1504591298.25,40798,14.63,73622.5,-2.11,-12.35,-15.67,0,*50
1504591299.49,40799,14.63,73620.0,-2.09,-12.53,-15.95,0,*55
1504591300.75,40800,14.63,73620.3,-2.11,-12.65,-15.95,0,*56
1504591302.01,40801,14.63,73614.5,-2.11,-12.53,-15.95,0,*52
1504591303.3,40802,14.63,73618.5,-2.13,-12.35,-15.57,0,*5D
1504591304.55,40803,14.63,73626.0,-2.13,-12.43,-15.81,0,*56
1504591305.79,40804,14.63,73620.5,-2.15,-12.61,-16.03,0,*5E
1504591307.02,40805,14.63,73618.5,-2.15,-12.71,-16.03,0,*5E
1504591308.23,40806,14.63,73618.8,-2.15,-12.47,-15.71,0,*5E
1504591309.47,40807,14.63,73612.5,-2.15,-12.47,-15.85,0,*54
1504591310.73,40808,14.63,73618.3,-2.13,-12.39,-15.57,0,*5B
1504591311.99,40809,14.63,73618.0,-2.13,-12.25,-15.43,0,*52
1504591313.25,40810,14.63,73626.0,-2.13,-11.85,-15.11,0,*54
1504591314.5,40811,14.63,73632.0,-2.13,-11.85,-15.15,0,*51
1504591315.77,40812,14.63,73630.0,-2.13,-12.21,-15.57,0,*59
1504591317.03,40813,14.63,73620.5,-2.11,-12.35,-15.53,0,*5B
1504591318.27,40814,14.63,73628.8,-2.13,-12.25,-15.11,0,*59
1504591319.52,40815,14.63,73636.0,-2.11,-12.15,-14.33,0,*58
1504591320.78,40816,14.63,73628.3,-2.13,-12.25,-14.51,0,*5E
1504591322.04,40817,14.63,73604.8,-2.13,-12.07,-15.15,0,*5E
1504591323.31,40818,14.63,73634.8,-2.15,-12.15,-15.43,0,*57
1504591324.57,40819,14.63,73624.0,-2.13,-12.25,-15.43,0,*53
1504591325.82,40820,14.63,73622.0,-2.13,-12.43,-15.57,0,*5C
1504591327.08,40821,14.63,73624.3,-2.13,-12.57,-15.99,0,*5A
1504591328.34,40822,14.63,73628.3,-2.15,-12.83,-16.17,0,*53
1504591329.61,40823,14.63,73624.0,-2.15,-12.75,-16.17,0,*5B
1504591330.87,40824,14.63,73620.5,-2.15,-12.83,-16.17,0,*55
1504591332.13,40825,14.63,73624.0,-2.15,-12.57,-15.85,0,*55
1504591333.39,40826,14.63,73614.8,-2.15,-12.71,-15.89,0,*5E
1504591334.62,40827,14.63,73604.3,-2.15,-12.83,-16.03,0,*53
1504591335.9,40828,14.63,73608.0,-2.17,-12.61,-15.85,0,*5F
1504591337.16,40829,14.63,73614.3,-2.19,-12.61,-15.81,0,*54
1504591338.39,40830,14.63,73616.8,-2.19,-12.65,-15.95,0,*5D
1504591339.64,40831,14.63,73618.8,-2.17,-12.75,-15.99,0,*5F
1504591340.93,40832,14.63,73634.0,-2.17,-12.75,-15.35,0,*5A
1504591342.15,40833,14.63,73634.8,-2.19,-12.47,-13.29,0,*5F
1504591343.4,40834,14.63,73624.8,-2.17,-9.75,-9.61,0,*5A
1504591344.63,40835,14.63,73616.3,-2.19,-8.63,-10.41,0,*69
1504591345.83,40836,14.63,73588.0,-2.19,-9.71,-11.11,0,*6C
1504591347.03,40837,14.63,73554.3,-2.19,-9.79,-10.53,0,*62
1504591348.26,40838,14.63,73518.3,-2.19,-9.41,-11.23,0,*60
1504591349.47,40839,14.63,73518.0,-2.19,-8.71,-10.27,0,*66
1504591350.7,40840,14.63,73564.8,-2.17,-9.27,-10.49,0,*6C
1504591351.97,40841,14.63,73610.3,-2.17,-8.03,-10.67,0,*66
1504591353.22,40842,14.63,73596.3,-2.17,-9.49,-12.39,0,*63
1504591354.46,40843,14.63,73580.3,-2.17,-10.35,-12.39,0,*51
1504591355.68,40844,14.63,73580.3,-2.17,-10.09,-12.39,0,*59
1504591356.91,40845,14.63,73588.5,-2.15,-10.31,-11.97,0,*56
1504591358.12,40846,14.63,73594.5,-2.15,-9.75,-11.15,0,*67
1504591359.34,40847,14.63,73560.5,-2.15,-9.93,-11.59,0,*66
1504591360.57,40848,14.63,73606.3,-2.13,-10.01,-11.11,0,*50
1504591361.78,40849,14.63,73624.8,-2.13,-9.89,-10.57,0,*6A
1504591363.02,40850,14.63,73610.3,-2.13,-10.31,-11.15,0,*5E
1504591364.26,40851,14.63,73620.8,-2.13,-11.45,-11.01,0,*58
1504591365.49,40852,14.63,73598.8,-2.13,-11.23,-10.01,0,*5A
1504591366.71,40853,14.63,73598.3,-2.13,-10.85,-8.97,0,*60
1504591367.95,40854,14.63,73584.0,-2.13,-9.57,-7.83,0,*5A
1504591369.17,40855,14.63,73564.3,-2.13,-8.25,-7.19,0,*5C
1504591370.4,40856,14.63,73578.5,-2.15,-7.11,-6.97,0,*56
1504591371.65,40857,14.63,73586.8,-2.15,-7.61,-7.05,0,*5A
1504591372.85,40858,14.63,73588.8,-2.15,-7.11,-6.35,0,*50
1504591374.05,40859,14.63,73566.5,-2.15,-6.43,-6.13,0,*53
1504591375.25,40860,14.63,73544.0,-2.15,-5.47,-6.85,0,*51
1504591376.46,40861,14.63,73568.8,-2.15,-6.05,-8.81,0,*5F
1504591377.71,40862,14.63,73594.0,-2.13,-7.31,-10.05,0,*69
1504591378.92,40863,14.63,73588.8,-2.15,-8.55,-11.19,0,*6F
1504591380.14,40864,14.63,73602.8,-2.13,-8.75,-10.45,0,*64
1504591381.4,40865,14.63,73616.8,-2.13,-8.93,-11.55,0,*6D
1504591382.66,40866,14.63,73602.8,-2.13,-10.45,-11.93,0,*56
1504591383.94,40867,14.63,73618.0,-2.13,-10.41,-11.37,0,*5D
1504591385.19,40868,14.63,73602.8,-2.13,-11.11,-11.29,0,*59
1504591386.45,40869,14.63,73588.0,-2.15,-11.77,-11.51,0,*51
1504591387.68,40870,14.63,73592.8,-2.13,-11.11,-9.71,0,*64
1504591388.9,40871,14.63,73598.0,-2.13,-10.57,-8.17,0,*67
1504591390.12,40872,14.63,73610.0,-2.13,-9.05,-6.09,0,*5A
1504591391.39,40873,14.63,73598.3,-2.11,-7.39,-4.81,0,*5A
1504591392.66,40874,14.63,73604.5,-2.13,-5.77,-4.69,0,*51
1504591393.94,40875,14.63,73590.3,-2.13,-5.85,-4.81,0,*5B
1504591395.18,40876,14.63,73596.3,-2.11,-5.73,-4.37,0,*5E
1504591396.43,40877,14.63,73600.5,-2.11,-5.69,-3.79,0,*59
1504591397.7,40878,14.63,73614.5,-2.11,-5.15,-3.59,0,*5F
1504591398.91,40879,14.63,73616.5,-2.09,-4.41,-3.59,0,*57
1504591400.13,40880,14.63,73602.0,-2.09,-4.13,-3.59,0,*56
1504591401.35,40881,14.63,73592.8,-2.09,-3.87,-3.63,0,*54
1504591402.59,40882,14.63,73602.5,-2.11,-3.79,-3.51,0,*5E
1504591403.84,40883,14.63,73598.0,-2.11,-3.87,-3.63,0,*5F
1504591405.1,40884,14.63,73604.3,-2.11,-3.63,-3.51,0,*53
1504591406.35,40885,14.63,73596.8,-2.13,-3.83,-3.67,0,*5B
1504591407.57,40886,14.63,73600.0,-2.09,-3.59,-3.39,0,*5F
1504591408.77,40887,14.63,73602.8,-2.09,-3.39,-3.35,0,*54
1504591409.97,40888,14.63,73608.3,-2.09,-3.35,-3.27,0,*54
1504591411.16,40889,14.63,73610.0,-2.09,-3.39,-3.35,0,*5A
1504591412.38,40890,14.63,73606.0,-2.09,-3.47,-3.35,0,*5B
1504591413.61,40891,14.63,73598.0,-2.07,-3.35,-3.19,0,*5F
1504591414.8,40892,14.63,73594.8,-2.09,-3.35,-3.27,0,*5F
1504591416.03,40893,14.63,73594.8,-2.07,-3.19,-3.11,0,*5B
1504591417.25,40894,14.63,73602.8,-2.07,-3.35,-3.23,0,*53
1504591418.47,40895,14.63,73604.5,-2.09,-3.47,-3.39,0,*52
1504591419.66,40896,14.63,73606.0,-2.09,-3.27,-3.23,0,*5C
1504591420.87,40897,14.63,73612.3,-2.07,-3.23,-3.19,0,*5E
1504591422.06,40898,14.63,73612.8,-2.09,-3.23,-3.35,0,*51
1504591423.31,40899,14.63,73612.8,-2.07,-3.59,-3.83,0,*5E
1504591424.51,40900,14.63,73620.8,-2.05,-4.13,-4.53,0,*5E
1504591425.78,40901,14.63,73618.5,-2.07,-4.85,-5.81,0,*5C
1504591427.04,40902,14.63,73614.8,-2.07,-5.55,-7.65,0,*5B
1504591428.29,40903,14.63,73622.3,-2.07,-6.93,-9.27,0,*5B
1504591429.51,40904,14.63,73622.8,-2.09,-7.53,-8.07,0,*5C
1504591430.74,40905,14.63,73620.5,-2.09,-7.01,-6.59,0,*5F
1504591431.99,40906,14.63,73616.0,-2.09,-5.81,-5.07,0,*5E
1504591433.21,40907,14.63,73626.8,-2.11,-4.57,-4.65,0,*59
1504591434.41,40908,14.63,73620.8,-2.09,-4.49,-4.65,0,*50
1504591435.62,40909,14.63,73626.3,-2.09,-4.41,-4.77,0,*5A
1504591436.85,40910,14.63,73624.5,-2.09,-4.65,-5.03,0,*56
1504591438.1,40911,14.63,73610.3,-2.11,-4.57,-5.03,0,*5F
1504591439.33,40912,14.63,73600.5,-2.09,-4.65,-5.15,0,*53
1504591440.57,40913,14.63,73590.8,-2.09,-4.69,-4.89,0,*5A
1504591441.8,40914,14.63,73590.8,-2.09,-4.69,-4.81,0,*55
1504591443.04,40915,14.63,73590.3,-2.09,-4.77,-4.69,0,*5D
1504591444.25,40916,14.63,73584.0,-2.09,-4.69,-4.41,0,*5B
1504591445.48,40917,14.63,73582.5,-2.07,-4.09,-3.95,0,*5C
1504591446.7,40918,14.63,73600.5,-2.07,-3.75,-4.45,0,*55
1504591447.93,40919,14.63,73586.8,-2.07,-4.25,-6.47,0,*56
1504591449.13,40920,14.63,73594.3,-2.05,-5.35,-8.97,0,*5D
1504591450.37,40921,14.63,73602.3,-2.05,-7.01,-10.35,0,*68
1504591451.56,40922,14.63,73606.3,-2.05,-8.33,-10.23,0,*62
1504591452.78,40923,14.63,73622.5,-2.01,-8.29,-9.11,0,*55
1504591454.0,40924,14.63,73614.5,-2.01,-7.61,-8.25,0,*57
1504591455.22,40925,14.63,73632.0,-2.01,-8.17,-7.43,0,*57
1504591456.47,40926,14.63,73624.8,-1.99,-6.97,-6.43,0,*51
1504591457.7,40927,14.63,73584.0,-2.01,-6.09,-7.57,0,*51
1504591458.92,40928,14.63,73608.5,-2.01,-6.89,-9.37,0,*5E
1504591460.14,40929,14.63,73610.5,-2.01,-7.61,-9.89,0,*5D
1504591461.36,40930,14.63,73606.8,-1.99,-8.17,-8.85,0,*54
1504591462.56,40931,14.63,73590.5,-2.01,-7.11,-7.49,0,*51
1504591463.78,40932,14.63,73612.0,-2.01,-6.55,-7.43,0,*59
1504591465.03,40933,14.63,73608.5,-2.01,-7.73,-7.57,0,*58
1504591466.25,40934,14.63,73622.5,-2.01,-6.89,-4.69,0,*55
1504591467.47,40935,14.63,73620.8,-2.01,-4.57,-3.71,0,*5B
1504591468.68,40936,14.63,73620.5,-1.99,-4.09,-3.95,0,*5B
1504591469.9,40937,14.63,73578.0,-1.99,-4.17,-4.33,0,*5E
1504591471.12,40938,14.63,73586.8,-2.01,-4.41,-4.85,0,*5D
1504591472.31,40939,14.63,73604.3,-1.97,-4.45,-5.43,0,*5F
1504591473.58,40940,14.63,73600.3,-1.99,-5.19,-5.65,0,*53
1504591474.85,40941,14.63,73594.0,-1.99,-4.93,-5.07,0,*55
1504591476.07,40942,14.63,73560.5,-1.99,-4.41,-4.99,0,*5F
1504591477.31,40943,14.63,73580.8,-1.99,-4.61,-5.73,0,*59
1504591478.58,40944,14.63,73600.3,-1.99,-5.31,-7.35,0,*5A
1504591479.8,40945,14.63,73622.5,-1.97,-6.93,-9.71,0,*50
1504591481.0,40946,14.63,73630.0,-1.97,-8.67,-12.25,0,*6D
1504591482.2,40947,14.63,73604.0,-1.97,-10.27,-13.23,0,*56
1504591483.44,40948,14.63,73588.8,-1.95,-9.61,-11.11,0,*62
1504591484.64,40949,14.63,73598.8,-1.97,-8.67,-11.19,0,*6E
1504591485.83,40950,14.63,73588.3,-1.97,-8.33,-11.11,0,*6F
1504591487.08,40951,14.63,73592.5,-1.95,-8.45,-11.51,0,*69
1504591488.36,40952,14.63,73588.8,-1.95,-8.51,-9.83,0,*59
1504591489.6,40953,14.63,73590.5,-1.95,-7.77,-9.71,0,*5E
1504591490.86,40954,14.63,73614.3,-1.95,-8.67,-12.75,0,*69
1504591492.11,40955,14.63,73600.0,-1.93,-11.07,-14.55,0,*54
1504591493.4,40956,14.63,73614.8,-1.95,-11.29,-14.79,0,*53
1504591494.66,40957,14.63,73606.3,-1.95,-11.63,-15.11,0,*53
1504591495.96,40958,14.63,73602.3,-1.95,-11.93,-15.39,0,*59
1504591497.22,40959,14.63,73604.0,-1.97,-11.89,-15.39,0,*51
1504591498.47,40960,14.63,73596.3,-1.97,-11.63,-15.21,0,*56
1504591499.7,40961,14.63,73600.0,-1.97,-11.41,-14.97,0,*5B
1504591500.91,40962,14.63,73592.0,-1.97,-11.41,-14.89,0,*57
1504591502.14,40963,14.63,73596.0,-1.97,-11.55,-15.07,0,*54
1504591503.4,40964,14.63,73600.0,-1.97,-11.55,-14.97,0,*5B
1504591504.63,40965,14.63,73612.8,-1.97,-11.51,-14.89,0,*51
1504591505.86,40966,14.63,73614.8,-1.97,-11.93,-15.11,0,*5C
1504591507.15,40967,14.63,73610.0,-1.99,-12.11,-14.79,0,*55
1504591508.41,40968,14.63,73598.8,-1.99,-11.93,-14.15,0,*59
1504591509.7,40969,14.63,73608.3,-1.99,-11.59,-12.79,0,*52
1504591510.93,40970,14.63,73594.5,-1.99,-11.23,-11.11,0,*5A
1504591512.15,40971,14.63,73614.3,-2.01,-10.75,-9.31,0,*60
1504591513.36,40972,14.63,73614.8,-2.01,-9.89,-7.69,0,*5B
1504591514.58,40973,14.56,73608.3,-2.01,-8.11,-6.43,0,*53
1504591515.77,40974,14.63,73608.0,-2.01,-6.39,-6.43,0,*50
1504591516.97,40975,14.63,73606.3,-2.01,-6.39,-7.19,0,*5F
1504591518.16,40976,14.63,73602.8,-2.05,-6.85,-8.17,0,*5E
1504591519.36,40977,14.63,73610.3,-2.05,-7.53,-8.89,0,*52
1504591520.61,40978,14.63,73610.8,-2.07,-7.61,-9.71,0,*58
1504591521.85,40979,14.63,73620.5,-2.07,-9.01,-11.01,0,*6F
1504591523.08,40980,14.63,73634.8,-2.07,-10.53,-12.25,0,*53
1504591524.31,40981,14.63,73632.3,-2.05,-10.89,-11.07,0,*54
1504591525.52,40982,14.63,73634.8,-2.09,-9.27,-10.15,0,*65
1504591526.77,40983,14.63,73626.5,-2.07,-8.29,-9.37,0,*5D
1504591528.05,40984,14.63,73630.5,-2.07,-6.93,-7.73,0,*5B
1504591529.31,40985,14.63,73624.5,-2.07,-5.93,-7.87,0,*52
1504591530.54,40986,14.63,73634.5,-2.05,-7.11,-9.11,0,*5A
1504591531.79,40987,14.63,73630.0,-2.07,-7.53,-8.07,0,*59
1504591532.99,40988,14.63,73622.0,-2.05,-6.43,-6.13,0,*5F
1504591534.24,40989,14.63,73622.8,-2.07,-5.23,-4.99,0,*59
1504591535.48,40990,14.63,73616.8,-2.05,-4.73,-5.15,0,*52
1504591536.74,40991,14.63,73618.0,-2.07,-5.03,-6.35,0,*56
1504591537.98,40992,14.63,73622.8,-2.07,-6.55,-8.03,0,*5E
1504591539.2,40993,14.63,73616.8,-2.05,-7.91,-8.55,0,*57
1504591540.44,40994,14.63,73614.5,-2.05,-7.77,-7.39,0,*5D
1504591541.69,40995,14.63,73620.3,-2.07,-6.69,-7.39,0,*50
1504591542.91,40996,14.63,73606.5,-2.07,-6.81,-8.29,0,*5B
1504591544.16,40997,14.63,73614.3,-2.07,-6.93,-8.55,0,*52
1504591545.39,40998,14.63,73622.3,-2.07,-7.87,-10.19,0,*68
1504591546.65,40999,14.63,73630.0,-2.07,-8.85,-11.33,0,*6D
1504591547.91,41000,14.63,73628.8,-2.05,-9.11,-11.97,0,*65
1504591549.16,41001,14.63,73634.3,-2.07,-10.09,-13.29,0,*50
1504591550.4,41002,14.63,73632.0,-2.07,-10.93,-14.15,0,*58
1504591551.66,41003,14.63,73638.8,-2.07,-11.29,-14.69,0,*52
1504591552.92,41004,14.63,73628.5,-2.07,-11.77,-15.15,0,*54
1504591554.16,41005,14.63,73626.8,-2.05,-12.15,-15.49,0,*59
1504591555.42,41006,14.63,73630.8,-2.07,-12.15,-15.63,0,*50
1504591556.66,41007,14.63,73632.3,-2.07,-12.29,-15.63,0,*5E
1504591557.95,41008,14.63,73622.5,-2.07,-12.35,-15.85,0,*54
1504591559.2,41009,14.63,73618.0,-2.07,-12.29,-15.75,0,*57
1504591560.43,41010,14.63,73612.5,-2.09,-12.35,-15.75,0,*5C
1504591561.66,41011,14.63,73618.5,-2.09,-12.39,-15.89,0,*52
1504591562.89,41012,14.63,73620.5,-2.11,-12.39,-15.75,0,*5B
1504591564.15,41013,14.63,73624.8,-2.11,-12.39,-15.81,0,*51
1504591565.39,41014,14.63,73626.3,-2.11,-12.39,-15.75,0,*5D
1504591566.63,41015,14.63,73624.3,-2.11,-12.21,-15.49,0,*5A
1504591567.9,41016,14.63,73630.0,-2.11,-12.21,-15.39,0,*5E
1504591569.17,41017,14.63,73620.0,-2.11,-12.39,-15.39,0,*56
1504591570.45,41018,14.63,73622.5,-2.11,-12.35,-15.21,0,*5C
1504591571.7,41019,14.63,73626.5,-2.13,-12.39,-14.93,0,*5B
1504591572.97,41020,14.63,73630.0,-2.11,-12.21,-14.47,0,*53
1504591574.24,41021,14.63,73626.8,-2.13,-12.21,-13.97,0,*5A
1504591575.44,41022,14.63,73620.0,-2.15,-12.25,-13.47,0,*56
1504591576.73,41023,14.63,73628.5,-2.13,-12.11,-12.71,0,*52
1504591578.01,41024,14.63,73620.8,-2.13,-12.11,-11.73,0,*54
1504591579.27,41025,14.63,73630.5,-2.13,-11.59,-11.01,0,*5F
1504591580.51,41026,14.63,73626.8,-2.15,-10.35,-10.75,0,*53
1504591581.76,41027,14.63,73616.5,-2.15,-9.61,-11.59,0,*64
1504591583.02,41028,14.63,73616.8,-2.15,-9.41,-12.83,0,*6D
1504591584.24,41029,14.63,73626.5,-2.15,-9.49,-13.69,0,*61
1504591585.44,41030,14.63,73624.8,-2.15,-9.97,-14.61,0,*65
1504591586.67,41031,14.63,73620.0,-2.15,-10.57,-15.21,0,*55
1504591587.91,41032,14.63,73612.0,-2.15,-11.15,-15.43,0,*55
1504591589.15,41033,14.63,73608.0,-2.15,-11.73,-15.71,0,*55
1504591590.36,41034,14.63,73618.3,-2.15,-12.25,-15.75,0,*56
1504591591.6,41035,14.63,73622.0,-2.17,-12.25,-15.71,0,*51
1504591592.83,41036,14.63,73614.8,-2.17,-12.29,-15.71,0,*5E
1504591594.07,41037,14.63,73614.5,-2.17,-12.43,-15.75,0,*57
1504591595.27,41038,14.63,73610.3,-2.19,-12.47,-15.99,0,*50
1504591596.5,41039,14.63,73602.8,-2.19,-12.47,-15.85,0,*5C
1504591597.73,41040,14.63,73602.5,-2.19,-12.47,-15.81,0,*56
1504591598.99,41041,14.63,73616.8,-2.17,-12.25,-15.35,0,*52
1504591600.23,41042,14.63,73614.8,-2.17,-12.39,-15.29,0,*51
1504591601.46,41043,14.63,73614.5,-2.19,-12.29,-14.93,0,*5F
1504591602.71,41044,14.63,73614.5,-2.17,-11.97,-14.11,0,*5A
1504591603.95,41045,14.63,73622.3,-2.19,-12.21,-13.61,0,*5B
1504591605.21,41046,14.63,73622.5,-2.17,-12.15,-12.97,0,*59
1504591606.44,41047,14.63,73618.0,-2.19,-11.89,-12.29,0,*55
1504591607.7,41048,14.63,73618.0,-2.19,-11.89,-11.63,0,*57
1504591608.96,41049,14.63,73614.8,-2.21,-11.77,-10.23,0,*59
1504591610.21,41050,14.63,73622.5,-2.21,-11.23,-8.51,0,*6C
1504591611.45,41051,14.63,73608.5,-2.21,-9.89,-7.27,0,*5A
1504591612.68,41052,14.63,73620.8,-2.21,-8.75,-7.11,0,*5E
1504591613.92,41053,14.63,73622.0,-2.21,-7.83,-6.97,0,*56
1504591615.18,41054,14.63,73626.3,-2.21,-7.15,-7.43,0,*56
1504591616.44,41055,14.63,73616.0,-2.21,-7.27,-8.03,0,*5D
1504591617.69,41056,14.63,73622.5,-2.21,-7.39,-8.37,0,*56
1504591618.91,41057,14.63,73622.3,-2.21,-7.15,-8.93,0,*57
1504591620.17,41058,14.63,73630.8,-2.23,-6.93,-9.45,0,*5F
1504591621.4,41059,14.63,73634.5,-2.23,-7.01,-10.53,0,*6B
1504591622.63,41060,14.63,73628.5,-2.23,-7.95,-11.15,0,*6F
1504591623.84,41061,14.63,73628.8,-2.23,-8.89,-10.89,0,*68
1504591625.07,41062,14.63,73634.0,-2.23,-9.19,-9.61,0,*5D
1504591626.31,41063,14.63,73620.0,-2.23,-7.95,-7.05,0,*5A
1504591627.56,41064,14.63,73626.3,-2.21,-6.51,-5.93,0,*5B
1504591628.76,41065,14.63,73628.8,-2.23,-6.89,-6.09,0,*5D
1504591629.97,41066,14.63,73626.8,-2.23,-7.19,-5.47,0,*5F
1504591631.19,41067,14.56,73620.3,-2.23,-6.43,-4.69,0,*5D
1504591632.42,41068,14.63,73626.8,-2.27,-5.23,-4.33,0,*5C
1504591633.63,41069,14.63,73618.8,-2.27,-4.57,-4.21,0,*5C
1504591634.85,41070,14.63,73616.8,-2.29,-4.33,-4.13,0,*59
1504591636.09,41071,14.63,73626.5,-2.29,-4.25,-4.21,0,*5E
1504591637.32,41072,14.63,73612.5,-2.29,-4.25,-4.21,0,*5D
1504591638.54,41073,14.63,73620.5,-2.29,-4.37,-4.33,0,*5C
1504591639.77,41074,14.63,73618.8,-2.29,-4.21,-4.09,0,*55
1504591640.96,41075,14.63,73624.3,-2.27,-4.17,-4.09,0,*5F
1504591642.19,41076,14.63,73626.3,-2.29,-4.25,-4.13,0,*58
1504591643.42,41077,14.63,73628.3,-2.29,-3.91,-3.83,0,*5F
1504591644.65,41078,14.63,73626.5,-2.29,-3.83,-3.83,0,*53
1504591645.88,41079,14.63,73624.0,-2.29,-3.91,-3.91,0,*52
1504591647.12,41080,14.63,73622.0,-2.29,-3.91,-3.91,0,*54
1504591648.33,41081,14.63,73626.8,-2.31,-3.95,-3.95,0,*5C
1504591649.58,41082,14.63,73628.3,-2.29,-3.91,-4.01,0,*58
1504591650.81,41083,14.63,73618.3,-2.29,-3.95,-4.45,0,*5D
1504591652.03,41084,14.63,73636.3,-2.29,-4.13,-4.57,0,*50
1504591653.25,41085,14.63,73630.5,-2.29,-4.49,-4.99,0,*5C
1504591654.5,41086,14.63,73628.5,-2.27,-4.81,-5.31,0,*56
1504591655.78,41087,14.63,73632.5,-2.29,-5.27,-5.89,0,*57
1504591657.05,41088,14.63,73636.0,-2.29,-5.61,-5.93,0,*51
1504591658.32,41089,14.63,73634.8,-2.29,-5.93,-5.77,0,*57
1504591659.57,41090,14.63,73636.3,-2.29,-5.89,-5.39,0,*5E
1504591660.8,41091,14.63,73630.5,-2.27,-5.47,-4.89,0,*59
1504591662.08,41092,14.63,73628.0,-2.29,-5.15,-4.89,0,*53
1504591663.33,41093,14.63,73624.0,-2.29,-5.11,-5.35,0,*50
1504591664.58,41094,14.63,73628.8,-2.27,-5.23,-5.61,0,*59
1504591665.83,41095,14.63,73626.3,-2.29,-4.99,-5.93,0,*5B
1504591667.07,41096,14.63,73624.5,-2.29,-5.35,-6.97,0,*58
1504591668.3,41097,14.63,73612.0,-2.27,-5.55,-7.05,0,*5B
1504591669.53,41098,14.63,73620.8,-2.27,-5.55,-8.11,0,*5E
1504591670.72,41099,14.63,73616.8,-2.27,-6.69,-9.89,0,*53
1504591671.97,41100,14.63,73610.5,-2.29,-7.65,-9.75,0,*52
1504591673.22,41101,14.63,73620.8,-2.27,-7.69,-9.61,0,*54
1504591674.42,41102,14.63,73610.3,-2.27,-8.29,-10.57,0,*61
1504591675.66,41103,14.63,73606.5,-2.27,-8.75,-11.55,0,*6A
1504591676.88,41104,14.63,73618.5,-2.27,-9.75,-11.97,0,*62
1504591678.11,41105,14.63,73600.3,-2.27,-7.61,-9.05,0,*5A
1504591679.34,41106,14.63,73618.0,-2.27,-7.43,-9.93,0,*56
1504591680.55,41107,14.63,73616.3,-2.27,-9.31,-12.93,0,*66
1504591681.75,41108,14.63,73614.5,-2.27,-10.53,-13.23,0,*5F
1504591682.95,41109,14.63,73612.8,-2.27,-10.85,-13.65,0,*57
1504591684.18,41110,14.63,73606.3,-2.23,-11.51,-15.67,0,*57
1504591685.43,41111,14.63,73608.3,-2.23,-12.21,-16.09,0,*59
1504591686.67,41112,14.63,73608.5,-2.23,-12.39,-16.13,0,*58
1504591687.89,41113,14.63,73612.8,-2.23,-12.21,-15.95,0,*5D
1504591689.1,41114,14.63,73614.3,-2.23,-12.25,-15.99,0,*52
1504591690.31,41115,14.63,73618.8,-2.23,-12.25,-15.99,0,*53
1504591691.55,41116,14.63,73626.5,-2.23,-12.11,-15.95,0,*5B
1504591692.82,41117,14.63,73628.0,-2.23,-11.97,-15.81,0,*52
1504591694.05,41118,14.63,73620.3,-2.23,-12.07,-15.99,0,*5E
1504591695.32,41119,14.63,73628.8,-2.23,-12.11,-16.09,0,*52
1504591696.53,41120,14.63,73628.3,-2.23,-12.47,-16.45,0,*53
1504591697.76,41121,14.63,73620.0,-2.23,-12.57,-16.59,0,*5E
1504591699.05,41122,14.63,73614.3,-2.21,-12.53,-16.51,0,*53
1504591700.29,41123,14.63,73620.3,-2.23,-12.57,-16.55,0,*50
1504591701.53,41124,14.63,73622.5,-2.27,-12.53,-16.59,0,*5B
1504591702.76,41125,14.63,73616.0,-2.27,-12.47,-16.27,0,*56